This is the latest recevied weather packets stored in our database for station/object DK4DAX-2. If no packets are shown the sender has not sent any weather packets the latest 10 day(s).
| Time | Temp. | Humidity | Pressure | Rain* | Wind** | Luminosity | Snow |
|---|---|---|---|---|---|---|---|
| 1777790701 | 19.44° C | 50% | 1004.8 hPa | 0 mm | - | - | - |
| 1777789800 | 18.33° C | 49% | 1005.1 hPa | 0 mm | - | - | - |
| 1777788901 | 17.78° C | 54% | 1004.9 hPa | 0 mm | - | - | - |
| 1777788001 | 16.11° C | 61% | 1004.7 hPa | 0 mm | - | - | - |
| 1777787101 | 15.56° C | 64% | 1004.8 hPa | 0 mm | - | - | - |
| 1777786200 | 15.56° C | 65% | 1004.5 hPa | 0 mm | - | - | - |
| 1777785301 | 15° C | 67% | 1004.5 hPa | 0 mm | - | - | - |
| 1777784401 | 15° C | 68% | 1004.6 hPa | 0 mm | - | - | - |
| 1777783501 | 15° C | 67% | 1004.7 hPa | 0 mm | - | - | - |
| 1777782601 | 15° C | 66% | 1004.4 hPa | 0 mm | - | - | - |
| 1777781700 | 15.56° C | 66% | 1004.8 hPa | 0 mm | - | - | - |
| 1777780801 | 15.56° C | 67% | 1004.5 hPa | 0 mm | - | - | - |
| 1777779901 | 15.56° C | 67% | 1004.6 hPa | 0 mm | - | - | - |
| 1777779000 | 15.56° C | 70% | 1004.6 hPa | 0 mm | - | - | - |
| 1777778101 | 15.56° C | 80% | 1004.6 hPa | 0 mm | - | - | - |
| 1777777201 | 15.56° C | 82% | 1004.8 hPa | 0 mm | - | - | - |
| 1777776300 | 15.56° C | 85% | 1004.8 hPa | 0 mm | - | - | - |
| 1777775401 | 15.56° C | 86% | 1004.9 hPa | 0 mm | - | - | - |
| 1777774501 | 15.56° C | 86% | 1005.2 hPa | 0 mm | - | - | - |
| 1777773601 | 15.56° C | 87% | 1005.3 hPa | 0 mm | - | - | - |
| 1777772701 | 16.11° C | 88% | 1005.4 hPa | 0 mm | - | - | - |
| 1777771801 | 16.11° C | 89% | 1005.4 hPa | 0 mm | - | - | - |
| 1777770901 | 15.56° C | 90% | 1005.2 hPa | 0 mm | - | - | - |
| 1777770001 | 15.56° C | 90% | 1005.6 hPa | 0 mm | - | - | - |
| 1777769101 | 16.11° C | 90% | 1005.3 hPa | 0 mm | - | - | - |
* Rain latest hour (hover to see other rain measurements)
** Current wind speed in m/s (hover to see current wind gust speed)